GW5804 Weather Reports


Display with metric or nautical units.
time (UTC)temp
F
wind
direction
speed
MPH
gust
MPH
rain 1hr
in
rain 24hr
in
rain mn
in
humidity
%
barometer
mb
20260505041636 56 270 0.0 0.0 0.00 0.00 0.00 96 1015.2
20260505041134 56 277 0.0 0.0 0.00 0.00 0.00 96 1015.2
20260505040630 56 250 0.0 0.0 0.00 0.00 0.00 96 1015.0
20260505040128 57 249 0.0 0.0 0.00 0.00 0.00 96 1014.9
20260505035624 57 249 0.0 0.0 0.00 0.00 0.00 96 1014.9
20260505035120 57 229 0.0 0.0 0.00 0.00 0.00 96 1015.1
20260505034617 56 233 0.0 0.0 0.00 0.00 0.00 96 1015.1
20260505034114 56 189 0.0 0.0 0.00 0.00 0.00 96 1015.0
20260505033611 57 221 0.0 0.0 0.00 0.00 0.00 96 1015.1
20260505033109 57 212 0.0 0.0 0.00 0.00 0.00 96 1015.2
20260505032607 57 232 0.0 0.0 0.00 0.00 0.00 96 1015.2
20260505032102 57 226 0.0 0.0 0.00 0.00 0.00 96 1015.3
20260505031600 57 246 0.0 0.0 0.00 0.00 0.00 96 1015.2
20260505031056 57 254 0.0 0.0 0.00 0.00 0.00 96 1015.3
20260505030554 57 245 0.0 0.0 0.00 0.00 0.00 96 1015.1
20260505030049 57 233 0.0 0.0 0.00 0.00 0.00 96 1015.3
20260505025545 57 137 0.0 0.0 0.00 0.00 0.00 96 1015.2
20260505025045 56 222 0.0 0.0 0.00 0.00 0.00 96 1015.4
20260505024541 56 221 0.0 0.0 0.00 0.00 0.00 95 1015.4
20260505024038 56 114 0.0 0.0 0.00 0.00 0.00 96 1015.4
20260505023535 56 105 0.0 0.0 0.00 0.00 0.00 95 1015.3
20260505023033 56 131 0.0 0.0 0.00 0.00 0.00 95 1015.4
20260505022530 57 236 0.0 0.0 0.00 0.00 0.00 95 1015.5
20260505022027 57 141 0.0 0.0 0.00 0.00 0.00 95 1015.3
20260505021524 57 216 0.0 0.0 0.00 0.00 0.00 95 1015.5
20260505021020 57 198 0.0 0.0 0.00 0.00 0.00 95 1015.8
20260505020520 57 173 0.0 0.0 0.00 0.00 0.00 95 1015.6
20260505020018 57 168 0.0 0.0 0.00 0.00 0.00 95 1015.5
20260505015515 57 145 0.0 0.0 0.00 0.00 0.00 95 1015.5
20260505015012 57 177 0.0 0.0 0.00 0.00 0.00 95 1015.7
20260505014508 57 155 1.0 2.0 0.00 0.00 0.00 95 1015.6
20260505014006 57 161 1.0 2.0 0.00 0.00 0.00 95 1015.8
20260505013502 57 146 0.0 1.0 0.00 0.00 0.00 95 1015.8
20260505012959 57 197 1.0 1.0 0.00 0.00 0.00 95 1015.9
20260505012458 57 190 2.0 3.0 0.00 0.00 0.00 95 1015.8
20260505011954 57 130 1.0 2.0 0.00 0.00 0.00 95 1015.9
20260505011450 57 154 2.0 2.0 0.00 0.00 0.00 95 1015.7
20260505010947 57 148 1.0 2.0 0.00 0.00 0.00 95 1015.8
20260505010443 57 163 1.0 2.0 0.00 0.00 0.00 94 1015.9
20260505005939 57 180 0.0 1.0 0.00 0.00 0.00 94 1016.0
20260505005436 57 133 2.0 3.0 0.00 0.00 0.00 94 1015.8
20260505004934 58 130 2.0 3.0 0.00 0.00 0.00 94 1016.0
20260505004430 58 117 1.0 2.0 0.00 0.00 0.00 93 1015.9
20260505003927 57 108 2.0 2.0 0.00 0.00 0.00 93 1015.9
20260505003425 57 114 2.0 3.0 0.00 0.00 0.00 92 1016.0
20260505002920 58 161 1.0 2.0 0.00 0.00 0.00 92 1016.1
20260505002417 58 176 0.0 1.0 0.00 0.00 0.00 91 1016.2
20260505001915 58 158 2.0 3.0 0.00 0.00 0.00 91 1016.2
20260505001413 58 178 0.0 0.0 0.00 0.00 0.00 90 1016.4
20260505000910 58 74 0.0 1.0 0.00 0.00 0.00 90 1016.4
20260505000408 58 94 0.0 0.0 0.00 0.00 0.00 89 1016.2
20260504235904 57 149 0.0 1.0 0.00 0.00 0.00 90 1016.2
20260504235401 58 123 1.0 1.0 0.00 0.00 0.00 90 1016.2
20260504234857 59 111 2.0 3.0 0.00 0.00 0.00 91 1016.4
20260504234355 59 90 0.0 0.0 0.00 0.00 0.00 90 1016.6
20260504233851 59 152 3.0 3.0 0.00 0.00 0.00 90 1016.6
20260504233347 59 117 0.0 1.0 0.00 0.00 0.00 90 1016.5
20260504232844 59 150 1.0 2.0 0.00 0.00 0.00 89 1016.7
20260504232341 58 137 2.0 2.0 0.00 0.00 0.00 89 1016.7
20260504231838 58 83 2.0 2.0 0.00 0.00 0.00 89 1016.6
20260504231334 58 58 1.0 1.0 0.00 0.00 0.00 89 1016.7
20260504230831 58 142 1.0 1.0 0.00 0.00 0.00 89 1016.8
20260504230329 58 133 1.0 2.0 0.00 0.00 0.00 89 1016.8
20260504225827 58 176 1.0 1.0 0.00 0.00 0.00 90 1016.8
20260504225323 59 132 1.0 1.0 0.00 0.00 0.00 90 1016.8
20260504224821 59 144 1.0 1.0 0.00 0.00 0.00 90 1016.9
20260504224318 59 172 1.0 2.0 0.00 0.00 0.00 89 1016.8
20260504223814 59 145 1.0 1.0 0.00 0.00 0.00 89 1016.9
20260504223310 59 145 1.0 2.0 0.00 0.00 0.00 88 1016.8
20260504222807 59 152 0.0 1.0 0.00 0.00 0.00 88 1016.9
20260504222305 59 140 1.0 1.0 0.00 0.00 0.00 88 1016.9
20260504221801 59 115 2.0 3.0 0.00 0.00 0.00 88 1016.9
20260504221258 58 154 0.0 0.0 0.00 0.00 0.00 88 1016.9
20260504220755 58 249 0.0 0.0 0.00 0.00 0.00 88 1017.0
20260504220252 58 221 0.0 0.0 0.00 0.00 0.00 87 1017.1
20260504215749 58 289 0.0 0.0 0.00 0.00 0.00 86 1016.9
20260504215246 58 292 0.0 0.0 0.00 0.00 0.00 86 1016.8
20260504214741 58 292 0.0 0.0 0.00 0.00 0.00 85 1017.0
20260504214238 58 292 0.0 0.0 0.00 0.00 0.00 85 1016.8
20260504213735 58 292 0.0 0.0 0.00 0.00 0.00 85 1016.8
20260504213231 58 292 0.0 0.0 0.00 0.00 0.00 85 1017.1
20260504212728 58 292 0.0 0.0 0.00 0.00 0.00 84 1017.1
20260504212225 58 293 0.0 0.0 0.00 0.00 0.00 84 1017.0
20260504211723 58 293 0.0 0.0 0.00 0.00 0.00 84 1017.1
20260504211218 58 293 0.0 0.0 0.00 0.00 0.00 84 1017.2
20260504210716 58 294 0.0 0.0 0.00 0.00 0.00 84 1017.0
20260504210213 58 289 0.0 0.0 0.00 0.00 0.00 83 1017.0
20260504205710 59 287 0.0 0.0 0.00 0.00 0.00 83 1017.0
20260504205208 59 181 0.0 0.0 0.00 0.00 0.00 82 1016.8
20260504204706 60 91 0.0 0.0 0.00 0.00 0.00 82 1016.9
20260504204204 60 123 1.0 1.0 0.00 0.00 0.00 82 1016.8
20260504203703 60 41 0.0 1.0 0.00 0.00 0.00 82 1016.8
20260504203200 60 92 1.0 2.0 0.00 0.00 0.00 81 1017.0
20260504202700 61 104 1.0 1.0 0.00 0.00 0.00 80 1016.9
20260504202157 61 117 1.0 2.0 0.00 0.00 0.00 78 1016.9
20260504201654 61 120 2.0 3.0 0.00 0.00 0.00 77 1017.0
20260504201152 61 118 2.0 2.0 0.00 0.00 0.00 76 1017.1
20260504200649 61 216 0.0 0.0 0.00 0.00 0.00 74 1017.0
20260504200145 61 217 0.0 0.0 0.00 0.00 0.00 72 1017.0
20260504195641 61 202 1.0 1.0 0.00 0.00 0.00 71 1016.9
20260504195137 61 180 1.0 1.0 0.00 0.00 0.00 70 1016.9
20260504194635 61 147 1.0 2.0 0.00 0.00 0.00 71 1016.9
20260504194131 61 150 1.0 2.0 0.00 0.00 0.00 72 1016.9
20260504193627 61 91 1.0 2.0 0.00 0.00 0.00 74 1016.8
20260504193125 61 121 1.0 2.0 0.00 0.00 0.00 74 1016.9
20260504192623 61 88 2.0 2.0 0.00 0.00 0.00 75 1016.8
20260504192121 61 151 2.0 3.0 0.00 0.00 0.00 75 1016.7
20260504191619 61 84 1.0 1.0 0.00 0.00 0.00 74 1016.7
20260504191115 61 174 2.0 3.0 0.00 0.00 0.00 73 1016.5
20260504190611 61 148 3.0 3.0 0.00 0.00 0.00 73 1016.6
20260504190108 61 113 2.0 2.0 0.00 0.00 0.00 73 1016.5
20260504185604 62 138 2.0 2.0 0.00 0.00 0.00 72 1016.5
20260504185101 62 162 2.0 2.0 0.00 0.00 0.00 70 1016.4
20260504184557 62 116 1.0 2.0 0.00 0.00 0.00 69 1016.5
20260504184052 62 125 2.0 3.0 0.00 0.00 0.00 69 1016.5
20260504183549 62 119 2.0 3.0 0.00 0.00 0.00 68 1016.2
20260504183047 62 110 3.0 3.0 0.00 0.00 0.00 68 1016.5
20260504182544 62 132 3.0 4.0 0.00 0.00 0.00 68 1016.3
20260504182041 63 150 2.0 2.0 0.00 0.00 0.00 68 1016.2
20260504181538 63 137 1.0 2.0 0.00 0.00 0.00 67 1016.1
20260504181037 63 140 1.0 2.0 0.00 0.00 0.00 66 1016.3
20260504180535 63 150 3.0 3.0 0.00 0.00 0.00 66 1016.3
20260504180034 63 196 2.0 3.0 0.00 0.00 0.00 67 1016.1
20260504175530 63 200 3.0 6.0 0.00 0.00 0.00 66 1016.2
20260504175027 64 121 0.0 1.0 0.00 0.00 0.00 66 1016.1
20260504174525 64 132 1.0 2.0 0.00 0.00 0.00 67 1016.3
20260504174022 64 132 2.0 2.0 0.00 0.00 0.00 67 1016.2
20260504173519 64 106 3.0 3.0 0.00 0.00 0.00 66 1016.3
20260504173016 64 138 2.0 2.0 0.00 0.00 0.00 65 1016.2
20260504172512 65 161 2.0 2.0 0.00 0.00 0.00 66 1016.1
20260504172009 65 156 2.0 3.0 0.00 0.00 0.00 65 1016.2
20260504171506 65 121 2.0 3.0 0.00 0.00 0.00 62 1016.1
20260504171003 65 151 3.0 4.0 0.00 0.00 0.00 65 1016.3
20260504170459 66 81 3.0 4.0 0.00 0.00 0.00 68 1016.4
20260504160419 69 212 1.0 1.0 0.00 0.00 0.00 61 1016.5
20260504150843 70 161 2.0 3.0 0.00 0.00 0.00 56 1016.7
20260504150339 70 191 4.0 6.0 0.00 0.00 0.00 58 1016.9
20260504141309 71 179 4.0 4.0 0.00 0.00 0.00 60 1017.0
20260504140806 72 163 1.0 2.0 0.00 0.00 0.00 61 1017.2
20260504140301 72 183 4.0 6.0 0.00 0.00 0.00 60 1017.3
20260504130730 71 242 4.0 7.0 0.00 0.00 0.00 64 1017.9
20260504130226 71 141 4.0 7.0 0.00 0.00 0.00 63 1017.9
20260504120150 70 220 3.0 4.0 0.00 0.00 0.00 65 1018.2
20260504110617 71 249 3.0 6.0 0.00 0.00 0.00 60 1018.1
20260504110113 71 162 4.0 4.0 0.00 0.00 0.00 58 1018.2
20260504100539 69 106 6.0 8.0 0.00 0.00 0.00 58 1018.5
20260504081933 68 212 1.0 2.0 0.00 0.00 0.00 63 1018.0
20260504081430 67 220 2.0 2.0 0.00 0.00 0.00 60 1018.2
20260504080925 68 195 3.0 6.0 0.00 0.00 0.00 57 1018.1
20260504080422 68 195 3.0 6.0 0.00 0.00 0.00 57 1018.1
20260504070350 68 208 0.0 1.0 0.00 0.00 0.00 61 1017.7
20260504050737 57 349 0.0 0.0 0.00 0.00 0.00 75 1017.0
20260504050235 57 79 1.0 1.0 0.00 0.00 0.00 74 1017.0
20260504045733 56 322 0.0 0.0 0.00 0.00 0.00 74 1016.9
20260504045232 56 92 0.0 1.0 0.00 0.00 0.00 74 1017.0
20260504044731 56 94 1.0 1.0 0.00 0.00 0.00 74 1016.9